Time,TemperatureF,DewpointF,PressureIn,WindDirection,WindDirectionDegrees,WindSpeedMPH,WindSpeedGustMPH,Humidity,HourlyPrecipIn,Conditions,Clouds,dailyrainin,SoftwareType,DateUTC
2013-01-23 00:01:00,22.1,3.5,30.24,NW,315,0.0,0.0,44,0.00,CLR,,0.00,WeatherDisplay:10.37,2013-01-23 05:01:00,
2013-01-23 00:03:00,22.1,3.5,30.24,NW,315,0.0,0.0,44,0.00,CLR,,0.00,WeatherDisplay:10.37,2013-01-23 05:03:00,
2013-01-23 00:04:00,22.1,3.5,30.24,NW,315,0.0,0.0,44,0.00,CLR,,0.00,WeatherDisplay:10.37,2013-01-23 05:04:00,
2013-01-23 00:09:00,21.9,3.8,30.24,NW,315,0.0,0.0,45,0.00,CLR,,0.00,WeatherDisplay:10.37,2013-01-23 05:09:00,
2013-01-23 00:14:00,21.9,3.3,30.24,NW,315,0.0,0.0,44,0.00,CLR,,0.00,WeatherDisplay:10.37,2013-01-23 05:14:00,
2013-01-23 00:19:00,21.9,3.3,30.24,NW,315,0.0,0.0,44,0.00,CLR,,0.00,WeatherDisplay:10.37,2013-01-23 05:19:00,
2013-01-23 00:24:00,21.7,2.6,30.24,NW,315,0.0,0.0,43,0.00,CLR,,0.00,WeatherDisplay:10.37,2013-01-23 05:24:00,
2013-01-23 00:29:00,21.6,2.5,30.24,NW,315,0.0,0.0,43,0.00,CLR,,0.00,WeatherDisplay:10.37,2013-01-23 05:29:00,
2013-01-23 00:34:00,21.4,2.3,30.24,NW,315,0.0,0.0,43,0.00,CLR,,0.00,WeatherDisplay:10.37,2013-01-23 05:34:00,
2013-01-23 00:39:00,21.4,2.3,30.24,NW,315,0.0,0.0,43,0.00,CLR,,0.00,WeatherDisplay:10.37,2013-01-23 05:39:00,
2013-01-23 00:44:00,21.4,2.3,30.24,NW,315,0.0,0.0,43,0.00,CLR,,0.00,WeatherDisplay:10.37,2013-01-23 05:44:00,
2013-01-23 00:49:00,21.2,2.2,30.24,NW,315,0.0,0.0,43,0.00,CLR,,0.00,WeatherDisplay:10.37,2013-01-23 05:49:00,
2013-01-23 00:54:00,21.0,2.5,30.24,NW,315,0.0,0.0,44,0.00,CLR,,0.00,WeatherDisplay:10.37,2013-01-23 05:54:00,
2013-01-23 00:59:00,21.0,3.0,30.24,NW,315,0.0,0.0,45,0.00,CLR,,0.00,WeatherDisplay:10.37,2013-01-23 05:59:00,
2013-01-23 01:04:00,21.0,3.4,30.24,NW,315,0.0,0.0,46,0.00,CLR,,0.00,WeatherDisplay:10.37,2013-01-23 06:04:00,
2013-01-23 01:09:00,20.8,3.3,30.24,NW,315,0.0,0.0,46,0.00,CLR,,0.00,WeatherDisplay:10.37,2013-01-23 06:09:00,
2013-01-23 01:14:00,20.7,4.0,30.24,NW,315,0.0,0.0,48,0.00,CLR,,0.00,WeatherDisplay:10.37,2013-01-23 06:14:00,
2013-01-23 01:19:00,20.5,3.9,30.24,NW,315,0.0,0.0,48,0.00,CLR,,0.00,WeatherDisplay:10.37,2013-01-23 06:19:00,
2013-01-23 01:24:00,20.5,3.9,30.24,NW,315,0.0,0.0,48,0.00,CLR,,0.00,WeatherDisplay:10.37,2013-01-23 06:24:00,
2013-01-23 01:29:00,20.3,3.7,30.24,NW,315,0.0,0.0,48,0.00,CLR,,0.00,WeatherDisplay:10.37,2013-01-23 06:29:00,
2013-01-23 01:34:00,20.3,3.7,30.24,NW,315,0.0,0.0,48,0.00,CLR,,0.00,WeatherDisplay:10.37,2013-01-23 06:34:00,
2013-01-23 01:39:00,20.1,3.5,30.24,NW,315,0.0,0.0,48,0.00,CLR,,0.00,WeatherDisplay:10.37,2013-01-23 06:39:00,
2013-01-23 01:44:00,20.1,4.0,30.24,NW,315,0.0,0.0,49,0.00,CLR,,0.00,WeatherDisplay:10.37,2013-01-23 06:44:00,
2013-01-23 01:49:00,20.1,4.0,30.24,NW,315,0.0,0.0,49,0.00,CLR,,0.00,WeatherDisplay:10.37,2013-01-23 06:49:00,
2013-01-23 01:54:00,20.1,4.9,30.24,NW,315,0.0,0.0,51,0.00,CLR,,0.00,WeatherDisplay:10.37,2013-01-23 06:54:00,
2013-01-23 01:59:00,19.8,4.9,30.27,NW,315,0.0,0.0,52,0.00,CLR,,0.00,WeatherDisplay:10.37,2013-01-23 06:59:00,
2013-01-23 02:04:00,19.8,5.4,30.27,NW,315,0.0,0.0,53,0.00,CLR,,0.00,WeatherDisplay:10.37,2013-01-23 07:04:00,
2013-01-23 02:09:00,19.6,5.2,30.27,NW,315,0.0,0.0,53,0.00,CLR,,0.00,WeatherDisplay:10.37,2013-01-23 07:09:00,
2013-01-23 02:14:00,19.4,5.0,30.27,NW,315,0.0,0.0,53,0.00,CLR,,0.00,WeatherDisplay:10.37,2013-01-23 07:14:00,
2013-01-23 02:19:00,19.6,5.2,30.27,NW,315,0.0,0.0,53,0.00,CLR,,0.00,WeatherDisplay:10.37,2013-01-23 07:19:00,
2013-01-23 02:24:00,19.4,4.6,30.27,NW,315,0.0,0.0,52,0.00,CLR,,0.00,WeatherDisplay:10.37,2013-01-23 07:24:00,
2013-01-23 02:29:00,19.4,4.6,30.27,NW,315,0.0,0.0,52,0.00,CLR,,0.00,WeatherDisplay:10.37,2013-01-23 07:29:00,
2013-01-23 02:34:00,19.4,5.0,30.27,NW,315,0.0,0.0,53,0.00,CLR,,0.00,WeatherDisplay:10.37,2013-01-23 07:34:00,
2013-01-23 02:39:00,19.4,5.0,30.27,NW,315,0.0,0.0,53,0.00,CLR,,0.00,WeatherDisplay:10.37,2013-01-23 07:39:00,
2013-01-23 02:44:00,19.2,5.3,30.27,NW,315,0.0,0.0,54,0.00,CLR,,0.00,WeatherDisplay:10.37,2013-01-23 07:44:00,
2013-01-23 02:49:00,19.2,5.3,30.27,NW,315,0.0,0.0,54,0.00,CLR,,0.00,WeatherDisplay:10.37,2013-01-23 07:49:00,
2013-01-23 02:54:00,19.2,5.3,30.27,NW,315,0.0,0.0,54,0.00,CLR,,0.00,WeatherDisplay:10.37,2013-01-23 07:54:00,
2013-01-23 02:59:00,19.2,4.9,30.27,NW,315,0.0,0.0,53,0.00,CLR,,0.00,WeatherDisplay:10.37,2013-01-23 07:59:00,
2013-01-23 03:04:00,19.2,5.3,30.27,NW,315,0.0,0.0,54,0.00,CLR,,0.00,WeatherDisplay:10.37,2013-01-23 08:04:00,
2013-01-23 03:09:00,19.2,5.3,30.27,NW,315,0.0,0.0,54,0.00,CLR,,0.00,WeatherDisplay:10.37,2013-01-23 08:09:00,
2013-01-23 03:14:00,19.0,5.5,30.27,NW,315,0.0,0.0,55,0.00,CLR,,0.00,WeatherDisplay:10.37,2013-01-23 08:14:00,
2013-01-23 03:19:00,19.0,5.1,30.27,NW,315,0.0,0.0,54,0.00,CLR,,0.00,WeatherDisplay:10.37,2013-01-23 08:19:00,
2013-01-23 03:24:00,18.7,4.8,30.27,NW,315,0.0,0.0,54,0.00,CLR,,0.00,WeatherDisplay:10.37,2013-01-23 08:24:00,
2013-01-23 03:29:00,18.7,4.8,30.27,NW,315,0.0,0.0,54,0.00,CLR,,0.00,WeatherDisplay:10.37,2013-01-23 08:29:00,
2013-01-23 03:34:00,18.7,4.8,30.27,NW,315,0.0,0.0,54,0.00,CLR,,0.00,WeatherDisplay:10.37,2013-01-23 08:34:00,
2013-01-23 03:39:00,18.5,4.6,30.27,NW,315,0.0,0.0,54,0.00,CLR,,0.00,WeatherDisplay:10.37,2013-01-23 08:39:00,
2013-01-23 03:44:00,18.3,4.8,30.27,NW,315,0.0,0.0,55,0.00,CLR,,0.00,WeatherDisplay:10.37,2013-01-23 08:44:00,
2013-01-23 03:49:00,18.3,4.8,30.27,NW,315,0.0,0.0,55,0.00,CLR,,0.00,WeatherDisplay:10.37,2013-01-23 08:49:00,
2013-01-23 03:54:00,18.1,4.7,30.27,NW,315,0.0,0.0,55,0.00,CLR,,0.00,WeatherDisplay:10.37,2013-01-23 08:54:00,
2013-01-23 03:59:00,18.1,4.7,30.27,NW,315,0.0,0.0,55,0.00,CLR,,0.00,WeatherDisplay:10.37,2013-01-23 08:59:00,
2013-01-23 04:04:00,18.3,5.2,30.27,NW,315,0.0,0.0,56,0.00,CLR,,0.00,WeatherDisplay:10.37,2013-01-23 09:04:00,
2013-01-23 04:09:00,18.1,5.1,30.27,NW,315,0.0,0.0,56,0.00,CLR,,0.00,WeatherDisplay:10.37,2013-01-23 09:09:00,
2013-01-23 04:14:00,18.1,5.1,30.27,NW,315,0.0,0.0,56,0.00,CLR,,0.00,WeatherDisplay:10.37,2013-01-23 09:14:00,
2013-01-23 04:19:00,18.1,5.1,30.27,NW,315,0.0,0.0,56,0.00,CLR,,0.00,WeatherDisplay:10.37,2013-01-23 09:19:00,
2013-01-23 04:24:00,18.1,5.1,30.27,NW,315,0.0,0.0,56,0.00,CLR,,0.00,WeatherDisplay:10.37,2013-01-23 09:24:00,
2013-01-23 04:29:00,18.0,5.3,30.27,NW,315,0.0,0.0,57,0.00,CLR,,0.00,WeatherDisplay:10.37,2013-01-23 09:29:00,
2013-01-23 04:34:00,18.1,5.4,30.27,NW,315,0.0,0.0,57,0.00,CLR,,0.00,WeatherDisplay:10.37,2013-01-23 09:34:00,
2013-01-23 04:39:00,18.1,5.4,30.27,NW,315,0.0,0.0,57,0.00,CLR,,0.00,WeatherDisplay:10.37,2013-01-23 09:39:00,
2013-01-23 04:44:00,18.1,5.4,30.27,NW,315,0.0,0.0,57,0.00,CLR,,0.00,WeatherDisplay:10.37,2013-01-23 09:44:00,
2013-01-23 04:49:00,18.1,5.4,30.27,NW,315,0.0,0.0,57,0.00,CLR,,0.00,WeatherDisplay:10.37,2013-01-23 09:49:00,
2013-01-23 04:54:00,18.0,5.3,30.27,NW,315,0.0,0.0,57,0.00,CLR,,0.00,WeatherDisplay:10.37,2013-01-23 09:54:00,
2013-01-23 04:59:00,17.8,5.1,30.27,NW,315,0.0,0.0,57,0.00,CLR,,0.00,WeatherDisplay:10.37,2013-01-23 09:59:00,
2013-01-23 05:04:00,17.8,4.7,30.27,NW,315,0.0,0.0,56,0.00,CLR,,0.00,WeatherDisplay:10.37,2013-01-23 10:04:00,
2013-01-23 05:09:00,17.8,4.7,30.27,NW,315,0.0,0.0,56,0.00,CLR,,0.00,WeatherDisplay:10.37,2013-01-23 10:09:00,
2013-01-23 05:14:00,17.6,4.9,30.27,NW,315,0.0,0.0,57,0.00,CLR,,0.00,WeatherDisplay:10.37,2013-01-23 10:14:00,
2013-01-23 05:19:00,17.6,4.9,30.27,NW,315,0.0,0.0,57,0.00,CLR,,0.00,WeatherDisplay:10.37,2013-01-23 10:19:00,
2013-01-23 05:24:00,17.6,4.5,30.27,NW,315,0.0,0.0,56,0.00,CLR,,0.00,WeatherDisplay:10.37,2013-01-23 10:24:00,
2013-01-23 05:29:00,17.6,4.5,30.27,NW,315,0.0,0.0,56,0.00,CLR,,0.00,WeatherDisplay:10.37,2013-01-23 10:29:00,
2013-01-23 05:34:00,17.6,4.2,30.27,NW,315,0.0,0.0,55,0.00,CLR,,0.00,WeatherDisplay:10.37,2013-01-23 10:34:00,
2013-01-23 05:39:00,17.4,4.0,30.27,NW,315,0.0,0.0,55,0.00,CLR,,0.00,WeatherDisplay:10.37,2013-01-23 10:39:00,
2013-01-23 05:44:00,17.4,4.4,30.30,NW,315,0.0,0.0,56,0.00,CLR,,0.00,WeatherDisplay:10.37,2013-01-23 10:44:00,
2013-01-23 05:49:00,17.2,4.2,30.30,NW,315,0.0,0.0,56,0.00,CLR,,0.00,WeatherDisplay:10.37,2013-01-23 10:49:00,
2013-01-23 05:54:00,17.2,4.2,30.30,NW,315,0.0,0.0,56,0.00,CLR,,0.00,WeatherDisplay:10.37,2013-01-23 10:54:00,
2013-01-23 05:59:00,17.1,4.0,30.30,NW,315,0.0,0.0,56,0.00,CLR,,0.00,WeatherDisplay:10.37,2013-01-23 10:59:00,
2013-01-23 06:04:00,16.9,3.9,30.30,NW,315,0.0,0.0,56,0.00,CLR,,0.00,WeatherDisplay:10.37,2013-01-23 11:04:00,
2013-01-23 06:09:00,16.9,4.3,30.30,NW,315,0.0,0.0,57,0.00,CLR,,0.00,WeatherDisplay:10.37,2013-01-23 11:09:00,
2013-01-23 06:14:00,16.7,4.1,30.30,NW,315,0.0,0.0,57,0.00,CLR,,0.00,WeatherDisplay:10.37,2013-01-23 11:14:00,
2013-01-23 06:19:00,16.9,4.6,30.30,NW,315,0.0,0.0,58,0.00,CLR,,0.00,WeatherDisplay:10.37,2013-01-23 11:19:00,
2013-01-23 06:24:00,16.9,4.6,30.30,NW,315,0.0,0.0,58,0.00,CLR,,0.00,WeatherDisplay:10.37,2013-01-23 11:24:00,
2013-01-23 06:29:00,16.7,4.5,30.30,NW,315,0.0,0.0,58,0.00,CLR,,0.00,WeatherDisplay:10.37,2013-01-23 11:29:00,
2013-01-23 06:34:00,16.7,4.8,30.30,NW,315,0.0,0.0,59,0.00,CLR,,0.00,WeatherDisplay:10.37,2013-01-23 11:34:00,
2013-01-23 06:39:00,16.9,5.0,30.30,NW,315,0.0,0.0,59,0.00,CLR,,0.00,WeatherDisplay:10.37,2013-01-23 11:39:00,
2013-01-23 06:44:00,16.7,5.2,30.30,NW,315,0.0,0.0,60,0.00,CLR,,0.00,WeatherDisplay:10.37,2013-01-23 11:44:00,
2013-01-23 06:49:00,16.5,5.0,30.30,NW,315,0.0,0.0,60,0.00,CLR,,0.00,WeatherDisplay:10.37,2013-01-23 11:49:00,
2013-01-23 06:54:00,16.3,4.9,30.30,NW,315,0.0,0.0,60,0.00,CLR,,0.00,WeatherDisplay:10.37,2013-01-23 11:54:00,
2013-01-23 06:59:00,16.2,5.1,30.30,NW,315,0.0,0.0,61,0.00,CLR,,0.00,WeatherDisplay:10.37,2013-01-23 11:59:00,
2013-01-23 07:04:00,16.2,5.1,30.30,NW,315,0.0,0.0,61,0.00,CLR,,0.00,WeatherDisplay:10.37,2013-01-23 12:04:00,
2013-01-23 07:09:00,16.2,5.4,30.30,NW,315,0.0,0.0,62,0.00,CLR,,0.00,WeatherDisplay:10.37,2013-01-23 12:09:00,
2013-01-23 07:14:00,16.0,5.2,30.30,NW,315,0.0,0.0,62,0.00,CLR,,0.00,WeatherDisplay:10.37,2013-01-23 12:14:00,
2013-01-23 07:19:00,16.0,5.2,30.30,NW,315,0.0,0.0,62,0.00,CLR,,0.00,WeatherDisplay:10.37,2013-01-23 12:19:00,
2013-01-23 07:24:00,16.2,5.4,30.30,NW,315,0.0,0.0,62,0.00,CLR,,0.00,WeatherDisplay:10.37,2013-01-23 12:24:00,
2013-01-23 07:29:00,16.0,5.2,30.33,NW,315,0.0,0.0,62,0.00,CLR,,0.00,WeatherDisplay:10.37,2013-01-23 12:29:00,
2013-01-23 07:34:00,16.0,5.6,30.33,NW,315,0.0,0.0,63,0.00,CLR,,0.00,WeatherDisplay:10.37,2013-01-23 12:34:00,
2013-01-23 07:39:00,16.0,5.6,30.33,NW,315,0.0,0.0,63,0.00,CLR,,0.00,WeatherDisplay:10.37,2013-01-23 12:39:00,
2013-01-23 07:44:00,16.0,5.6,30.33,NW,315,0.0,0.0,63,0.00,CLR,,0.00,WeatherDisplay:10.37,2013-01-23 12:44:00,
2013-01-23 07:49:00,16.2,6.1,30.33,NW,315,0.0,0.0,64,0.00,CLR,,0.00,WeatherDisplay:10.37,2013-01-23 12:49:00,
2013-01-23 07:54:00,16.2,6.1,30.33,NW,315,0.0,0.0,64,0.00,CLR,,0.00,WeatherDisplay:10.37,2013-01-23 12:54:00,
2013-01-23 07:59:00,16.3,6.3,30.30,NW,315,0.0,0.0,64,0.00,CLR,,0.00,WeatherDisplay:10.37,2013-01-23 12:59:00,
2013-01-23 08:04:00,16.5,6.5,30.30,NW,315,0.0,0.0,64,0.00,CLR,,0.00,WeatherDisplay:10.37,2013-01-23 13:04:00,
2013-01-23 08:09:00,16.7,6.6,30.30,NW,315,0.0,0.0,64,0.00,CLR,,0.00,WeatherDisplay:10.37,2013-01-23 13:09:00,
2013-01-23 08:14:00,17.2,7.1,30.30,NW,315,0.0,0.0,64,0.00,CLR,,0.00,WeatherDisplay:10.37,2013-01-23 13:14:00,
2013-01-23 08:19:00,17.6,7.8,30.30,NW,315,0.0,0.0,65,0.00,CLR,,0.00,WeatherDisplay:10.37,2013-01-23 13:19:00,
2013-01-23 08:24:00,18.0,8.5,30.30,NW,315,0.0,0.0,66,0.00,CLR,,0.00,WeatherDisplay:10.37,2013-01-23 13:24:00,
2013-01-23 08:29:00,18.5,9.0,30.33,NW,315,0.0,0.0,66,0.00,CLR,,0.00,WeatherDisplay:10.37,2013-01-23 13:29:00,
2013-01-23 08:34:00,18.5,9.4,30.33,NW,315,0.0,0.0,67,0.00,CLR,,0.00,WeatherDisplay:10.37,2013-01-23 13:34:00,
2013-01-23 08:39:00,19.0,9.5,30.33,NW,315,0.0,0.0,66,0.00,CLR,,0.00,WeatherDisplay:10.37,2013-01-23 13:39:00,
2013-01-23 08:44:00,19.6,9.7,30.33,NW,315,0.0,0.0,65,0.00,CLR,,0.00,WeatherDisplay:10.37,2013-01-23 13:44:00,
2013-01-23 08:49:00,19.6,9.4,30.33,NW,315,0.0,0.0,64,0.00,CLR,,0.00,WeatherDisplay:10.37,2013-01-23 13:49:00,
2013-01-23 08:54:00,20.3,9.7,30.33,NW,315,0.0,0.0,63,0.00,CLR,,0.00,WeatherDisplay:10.37,2013-01-23 13:54:00,
2013-01-23 08:59:00,20.7,9.0,30.33,NW,315,0.0,0.0,60,0.00,CLR,,0.00,WeatherDisplay:10.37,2013-01-23 13:59:00,
2013-01-23 09:04:00,21.2,8.7,30.33,NW,315,0.0,0.0,58,0.00,CLR,,0.00,WeatherDisplay:10.37,2013-01-23 14:04:00,
2013-01-23 09:09:00,21.6,7.5,30.33,NW,315,0.0,0.0,54,0.00,CLR,,0.00,WeatherDisplay:10.37,2013-01-23 14:09:00,
2013-01-23 09:14:00,22.3,4.6,30.33,NW,315,0.0,0.0,46,0.00,CLR,,0.00,WeatherDisplay:10.37,2013-01-23 14:14:00,
2013-01-23 09:19:00,22.8,3.6,30.33,NW,315,0.0,0.0,43,0.00,CLR,,0.00,WeatherDisplay:10.37,2013-01-23 14:19:00,
2013-01-23 09:24:00,24.1,2.1,30.33,NW,315,0.0,0.0,38,0.00,CLR,,0.00,WeatherDisplay:10.37,2013-01-23 14:24:00,
2013-01-23 09:29:00,25.7,0.5,30.33,NW,315,0.0,0.0,33,0.00,CLR,,0.00,WeatherDisplay:10.37,2013-01-23 14:29:00,
2013-01-23 09:34:00,26.2,0.3,30.33,NW,315,0.0,0.0,32,0.00,CLR,,0.00,WeatherDisplay:10.37,2013-01-23 14:34:00,
2013-01-23 09:39:00,27.0,0.3,30.33,NW,315,0.0,0.0,31,0.00,CLR,,0.00,WeatherDisplay:10.37,2013-01-23 14:39:00,
2013-01-23 09:44:00,27.1,0.4,30.33,NW,315,3.5,0.0,31,0.00,CLR,,0.00,WeatherDisplay:10.37,2013-01-23 14:44:00,
2013-01-23 09:49:00,27.5,-1.4,30.33,NW,315,0.0,0.0,28,0.00,CLR,,0.00,WeatherDisplay:10.37,2013-01-23 14:49:00,
2013-01-23 09:54:00,27.9,-1.1,30.33,NW,315,0.0,0.0,28,0.00,CLR,,0.00,WeatherDisplay:10.37,2013-01-23 14:54:00,
2013-01-23 09:59:00,28.6,-0.5,30.33,NW,315,0.0,0.0,28,0.00,CLR,,0.00,WeatherDisplay:10.37,2013-01-23 14:59:00,
2013-01-23 10:04:00,29.1,-2.4,30.33,NW,315,0.0,0.0,25,0.00,CLR,,0.00,WeatherDisplay:10.37,2013-01-23 15:04:00,
2013-01-23 10:09:00,29.5,-2.1,30.33,NW,315,0.0,0.0,25,0.00,CLR,,0.00,WeatherDisplay:10.37,2013-01-23 15:09:00,
2013-01-23 10:14:00,29.8,-1.8,30.33,NW,315,0.0,0.0,25,0.00,CLR,,0.00,WeatherDisplay:10.37,2013-01-23 15:14:00,
2013-01-23 10:19:00,30.7,-1.0,30.33,NW,315,0.0,0.0,25,0.00,CLR,,0.00,WeatherDisplay:10.37,2013-01-23 15:19:00,
2013-01-23 10:24:00,31.3,-2.3,30.33,NW,315,0.0,0.0,23,0.00,CLR,,0.00,WeatherDisplay:10.37,2013-01-23 15:24:00,
2013-01-23 10:29:00,32.7,-1.1,30.33,NW,315,0.0,0.0,23,0.00,CLR,,0.00,WeatherDisplay:10.37,2013-01-23 15:29:00,
2013-01-23 10:34:00,33.6,-0.3,30.33,NW,315,3.5,0.0,23,0.00,CLR,,0.00,WeatherDisplay:10.37,2013-01-23 15:34:00,
2013-01-23 10:39:00,34.0,-1.0,30.33,NW,315,0.0,0.0,22,0.00,CLR,,0.00,WeatherDisplay:10.37,2013-01-23 15:39:00,
2013-01-23 10:44:00,35.6,0.4,30.33,NW,315,0.0,0.0,22,0.00,CLR,,0.00,WeatherDisplay:10.37,2013-01-23 15:44:00,
2013-01-23 10:49:00,35.1,0.0,30.33,NW,315,0.0,0.0,22,0.00,CLR,,0.00,WeatherDisplay:10.37,2013-01-23 15:49:00,
2013-01-23 10:54:00,34.9,-0.2,30.33,NW,315,0.0,0.0,22,0.00,CLR,,0.00,WeatherDisplay:10.37,2013-01-23 15:54:00,
2013-01-23 10:59:00,35.8,0.6,30.33,NW,315,3.5,0.0,22,0.00,CLR,,0.00,WeatherDisplay:10.37,2013-01-23 15:59:00,
2013-01-23 11:04:00,36.1,0.9,30.33,NW,315,0.0,0.0,22,0.00,CLR,,0.00,WeatherDisplay:10.37,2013-01-23 16:04:00,
2013-01-23 11:09:00,36.9,1.5,30.33,NW,315,0.0,0.0,22,0.00,CLR,,0.00,WeatherDisplay:10.37,2013-01-23 16:09:00,
2013-01-23 11:14:00,36.9,1.5,30.33,NW,315,0.0,0.0,22,0.00,CLR,,0.00,WeatherDisplay:10.37,2013-01-23 16:14:00,
2013-01-23 11:19:00,37.0,1.6,30.33,NW,315,3.5,0.0,22,0.00,CLR,,0.00,WeatherDisplay:10.37,2013-01-23 16:19:00,
2013-01-23 11:24:00,37.9,1.4,30.33,NW,315,0.0,0.0,21,0.00,CLR,,0.00,WeatherDisplay:10.37,2013-01-23 16:24:00,
2013-01-23 11:29:00,37.2,1.8,30.30,NW,315,2.3,0.0,22,0.00,CLR,,0.00,WeatherDisplay:10.37,2013-01-23 16:29:00,
2013-01-23 11:34:00,37.2,1.8,30.30,NW,315,0.0,0.0,22,0.00,CLR,,0.00,WeatherDisplay:10.37,2013-01-23 16:34:00,
2013-01-23 11:39:00,36.7,1.3,30.30,NW,315,2.3,0.0,22,0.00,CLR,,0.00,WeatherDisplay:10.37,2013-01-23 16:39:00,
2013-01-23 11:44:00,36.3,1.0,30.30,NW,315,0.0,0.0,22,0.00,CLR,,0.00,WeatherDisplay:10.37,2013-01-23 16:44:00,
2013-01-23 11:49:00,36.1,0.9,30.30,NW,315,0.0,0.0,22,0.00,CLR,,0.00,WeatherDisplay:10.37,2013-01-23 16:49:00,
2013-01-23 11:54:00,35.8,0.6,30.30,NW,315,0.0,0.0,22,0.00,CLR,,0.00,WeatherDisplay:10.37,2013-01-23 16:54:00,
2013-01-23 11:59:00,36.0,0.7,30.27,NW,315,2.3,0.0,22,0.00,CLR,,0.00,WeatherDisplay:10.37,2013-01-23 16:59:00,
2013-01-23 12:04:00,36.3,1.0,30.27,NW,315,0.0,0.0,22,0.00,CLR,,0.00,WeatherDisplay:10.37,2013-01-23 17:04:00,
2013-01-23 12:09:00,36.5,1.2,30.27,NW,315,0.0,0.0,22,0.00,CLR,,0.00,WeatherDisplay:10.37,2013-01-23 17:09:00,
2013-01-23 12:14:00,36.9,1.5,30.27,NW,315,0.0,0.0,22,0.00,CLR,,0.00,WeatherDisplay:10.37,2013-01-23 17:14:00,
2013-01-23 12:19:00,36.9,1.5,30.27,NW,315,0.0,0.0,22,0.00,CLR,,0.00,WeatherDisplay:10.37,2013-01-23 17:19:00,
2013-01-23 12:24:00,36.9,1.5,30.27,NW,315,0.0,0.0,22,0.00,CLR,,0.00,WeatherDisplay:10.37,2013-01-23 17:24:00,
2013-01-23 12:29:00,37.4,0.9,30.24,NW,315,0.0,0.0,21,0.00,CLR,,0.00,WeatherDisplay:10.37,2013-01-23 17:29:00,
2013-01-23 12:34:00,38.1,1.6,30.24,NW,315,0.0,0.0,21,0.00,CLR,,0.00,WeatherDisplay:10.37,2013-01-23 17:34:00,
2013-01-23 12:39:00,38.7,2.0,30.24,NW,315,0.0,0.0,21,0.00,CLR,,0.00,WeatherDisplay:10.37,2013-01-23 17:39:00,
2013-01-23 12:44:00,39.0,2.3,30.24,NW,315,2.3,0.0,21,0.00,CLR,,0.00,WeatherDisplay:10.37,2013-01-23 17:44:00,
2013-01-23 12:49:00,39.4,2.6,30.24,NW,315,2.3,0.0,21,0.00,CLR,,0.00,WeatherDisplay:10.37,2013-01-23 17:49:00,
2013-01-23 12:54:00,39.6,2.8,30.24,NW,315,0.0,0.0,21,0.00,CLR,,0.00,WeatherDisplay:10.37,2013-01-23 17:54:00,
2013-01-23 12:59:00,40.3,3.4,30.24,NW,315,0.0,0.0,21,0.00,CLR,,0.00,WeatherDisplay:10.37,2013-01-23 17:59:00,
2013-01-23 13:04:00,40.5,3.5,30.24,NW,315,0.0,0.0,21,0.00,CLR,,0.00,WeatherDisplay:10.37,2013-01-23 18:04:00,
2013-01-23 13:09:00,40.1,3.2,30.24,NW,315,0.0,0.0,21,0.00,CLR,,0.00,WeatherDisplay:10.37,2013-01-23 18:09:00,
2013-01-23 13:14:00,40.1,3.2,30.21,NW,315,2.3,0.0,21,0.00,CLR,,0.00,WeatherDisplay:10.37,2013-01-23 18:14:00,
2013-01-23 13:19:00,39.4,2.6,30.21,NW,315,0.0,0.0,21,0.00,CLR,,0.00,WeatherDisplay:10.37,2013-01-23 18:19:00,
2013-01-23 13:24:00,39.6,2.8,30.21,NW,315,0.0,0.0,21,0.00,CLR,,0.00,WeatherDisplay:10.37,2013-01-23 18:24:00,
2013-01-23 13:29:00,39.6,2.8,30.21,NW,315,0.0,0.0,21,0.00,CLR,,0.00,WeatherDisplay:10.37,2013-01-23 18:29:00,
2013-01-23 13:34:00,39.4,2.6,30.21,NW,315,2.6,0.0,21,0.00,CLR,,0.00,WeatherDisplay:10.37,2013-01-23 18:34:00,
2013-01-23 13:39:00,39.7,2.9,30.21,NW,315,0.0,0.0,21,0.00,CLR,,0.00,WeatherDisplay:10.37,2013-01-23 18:39:00,
2013-01-23 13:44:00,39.7,2.9,30.21,NW,315,2.3,0.0,21,0.00,CLR,,0.00,WeatherDisplay:10.37,2013-01-23 18:44:00,
2013-01-23 13:49:00,39.7,2.9,30.21,NW,315,0.0,0.0,21,0.00,CLR,,0.00,WeatherDisplay:10.37,2013-01-23 18:49:00,
2013-01-23 13:54:00,39.9,3.1,30.21,NW,315,0.0,0.0,21,0.00,CLR,,0.00,WeatherDisplay:10.37,2013-01-23 18:54:00,
2013-01-23 13:59:00,40.5,3.5,30.21,NW,315,0.0,0.0,21,0.00,CLR,,0.00,WeatherDisplay:10.37,2013-01-23 18:59:00,
2013-01-23 14:04:00,40.6,3.7,30.21,NW,315,0.0,0.0,21,0.00,CLR,,0.00,WeatherDisplay:10.37,2013-01-23 19:04:00,
2013-01-23 14:09:00,40.8,3.8,30.21,NW,315,0.0,0.0,21,0.00,CLR,,0.00,WeatherDisplay:10.37,2013-01-23 19:09:00,
2013-01-23 14:14:00,41.2,6.1,30.18,NW,315,0.0,0.0,23,0.00,CLR,,0.00,WeatherDisplay:10.37,2013-01-23 19:14:00,
2013-01-23 14:19:00,41.4,4.3,30.18,NW,315,0.0,0.0,21,0.00,CLR,,0.00,WeatherDisplay:10.37,2013-01-23 19:19:00,
2013-01-23 14:24:00,41.5,4.4,30.18,NW,315,3.5,0.0,21,0.00,CLR,,0.00,WeatherDisplay:10.37,2013-01-23 19:24:00,
2013-01-23 14:29:00,41.4,4.3,30.18,NW,315,0.0,0.0,21,0.00,CLR,,0.00,WeatherDisplay:10.37,2013-01-23 19:29:00,
2013-01-23 14:34:00,41.4,4.3,30.18,NW,315,0.0,0.0,21,0.00,CLR,,0.00,WeatherDisplay:10.37,2013-01-23 19:34:00,
2013-01-23 14:39:00,41.2,4.1,30.18,NW,315,4.6,4.6,21,0.00,CLR,,0.00,WeatherDisplay:10.37,2013-01-23 19:39:00,
2013-01-23 14:44:00,40.3,3.4,30.18,NW,315,0.0,0.0,21,0.00,CLR,,0.00,WeatherDisplay:10.37,2013-01-23 19:44:00,
2013-01-23 14:49:00,39.9,3.1,30.18,NW,315,0.0,0.0,21,0.00,CLR,,0.00,WeatherDisplay:10.37,2013-01-23 19:49:00,
2013-01-23 14:54:00,39.7,2.9,30.18,NW,315,0.0,0.0,21,0.00,CLR,,0.00,WeatherDisplay:10.37,2013-01-23 19:54:00,
2013-01-23 14:59:00,39.9,3.1,30.18,NW,315,0.0,0.0,21,0.00,CLR,,0.00,WeatherDisplay:10.37,2013-01-23 19:59:00,
2013-01-23 15:04:00,40.6,5.7,30.18,NW,315,0.0,0.0,23,0.00,CLR,,0.00,WeatherDisplay:10.37,2013-01-23 20:04:00,
2013-01-23 15:09:00,41.7,6.6,30.18,NW,315,0.0,0.0,23,0.00,CLR,,0.00,WeatherDisplay:10.37,2013-01-23 20:09:00,
2013-01-23 15:14:00,41.7,4.6,30.18,NW,315,0.0,0.0,21,0.00,CLR,,0.00,WeatherDisplay:10.37,2013-01-23 20:14:00,
2013-01-23 15:19:00,42.4,7.2,30.18,NW,315,0.0,0.0,23,0.00,CLR,,0.00,WeatherDisplay:10.37,2013-01-23 20:19:00,
2013-01-23 15:24:00,42.6,7.3,30.18,NW,315,0.0,0.0,23,0.00,CLR,,0.00,WeatherDisplay:10.37,2013-01-23 20:24:00,
2013-01-23 15:29:00,42.3,5.0,30.18,NW,315,0.0,0.0,21,0.00,CLR,,0.00,WeatherDisplay:10.37,2013-01-23 20:29:00,
2013-01-23 15:34:00,42.3,5.0,30.18,NW,315,0.0,0.0,21,0.00,CLR,,0.00,WeatherDisplay:10.37,2013-01-23 20:34:00,
2013-01-23 15:39:00,42.6,5.3,30.18,NW,315,0.0,0.0,21,0.00,CLR,,0.00,WeatherDisplay:10.37,2013-01-23 20:39:00,
2013-01-23 15:44:00,42.4,7.2,30.15,NW,315,0.0,0.0,23,0.00,CLR,,0.00,WeatherDisplay:10.37,2013-01-23 20:44:00,
2013-01-23 15:49:00,42.3,5.0,30.15,NW,315,2.3,0.0,21,0.00,CLR,,0.00,WeatherDisplay:10.37,2013-01-23 20:49:00,
2013-01-23 15:54:00,41.2,4.1,30.15,NW,315,0.0,0.0,21,0.00,CLR,,0.00,WeatherDisplay:10.37,2013-01-23 20:54:00,
2013-01-23 15:59:00,41.0,6.0,30.15,NW,315,0.0,0.0,23,0.00,CLR,,0.00,WeatherDisplay:10.37,2013-01-23 20:59:00,
2013-01-23 16:04:00,40.8,5.8,30.15,NW,315,0.0,0.0,23,0.00,CLR,,0.00,WeatherDisplay:10.37,2013-01-23 21:04:00,
2013-01-23 16:09:00,40.3,3.4,30.15,NW,315,3.5,0.0,21,0.00,CLR,,0.00,WeatherDisplay:10.37,2013-01-23 21:09:00,
2013-01-23 16:14:00,40.1,5.2,30.15,NW,315,0.0,0.0,23,0.00,CLR,,0.00,WeatherDisplay:10.37,2013-01-23 21:14:00,
2013-01-23 16:19:00,39.9,3.1,30.15,NW,315,0.0,0.0,21,0.00,CLR,,0.00,WeatherDisplay:10.37,2013-01-23 21:19:00,
2013-01-23 16:24:00,39.7,4.9,30.15,NW,315,0.0,0.0,23,0.00,CLR,,0.00,WeatherDisplay:10.37,2013-01-23 21:24:00,
2013-01-23 16:30:00,39.6,4.7,30.15,NW,315,0.0,0.0,23,0.00,CLR,,0.00,WeatherDisplay:10.37,2013-01-23 21:30:00,
2013-01-23 16:35:00,39.4,4.6,30.15,NW,315,0.0,0.0,23,0.00,CLR,,0.00,WeatherDisplay:10.37,2013-01-23 21:35:00,
2013-01-23 16:40:00,39.2,4.4,30.15,NW,315,2.3,0.0,23,0.00,CLR,,0.00,WeatherDisplay:10.37,2013-01-23 21:40:00,
2013-01-23 16:45:00,38.8,5.1,30.15,NW,315,0.0,0.0,24,0.00,CLR,,0.00,WeatherDisplay:10.37,2013-01-23 21:45:00,
2013-01-23 16:50:00,38.7,4.9,30.15,NW,315,0.0,0.0,24,0.00,CLR,,0.00,WeatherDisplay:10.37,2013-01-23 21:50:00,
2013-01-23 16:55:00,38.5,4.8,30.15,NW,315,0.0,0.0,24,0.00,CLR,,0.00,WeatherDisplay:10.37,2013-01-23 21:55:00,
2013-01-23 17:00:00,38.1,4.4,30.15,NW,315,0.0,0.0,24,0.00,CLR,,0.00,WeatherDisplay:10.37,2013-01-23 22:00:00,
2013-01-23 17:05:00,38.1,4.4,30.15,NW,315,0.0,0.0,24,0.00,CLR,,0.00,WeatherDisplay:10.37,2013-01-23 22:05:00,
2013-01-23 17:10:00,37.9,4.3,30.15,NW,315,0.0,0.0,24,0.00,CLR,,0.00,WeatherDisplay:10.37,2013-01-23 22:10:00,
2013-01-23 17:15:00,37.6,4.0,30.15,NW,315,0.0,0.0,24,0.00,CLR,,0.00,WeatherDisplay:10.37,2013-01-23 22:15:00,
2013-01-23 17:20:00,37.4,3.8,30.15,NW,315,0.0,0.0,24,0.00,CLR,,0.00,WeatherDisplay:10.37,2013-01-23 22:20:00,
2013-01-23 17:25:00,37.0,3.5,30.15,NW,315,0.0,0.0,24,0.00,CLR,,0.00,WeatherDisplay:10.37,2013-01-23 22:25:00,
2013-01-23 17:30:00,36.9,5.9,30.15,NW,315,0.0,0.0,27,0.00,CLR,,0.00,WeatherDisplay:10.37,2013-01-23 22:30:00,
2013-01-23 17:35:00,36.7,5.8,30.15,NW,315,0.0,0.0,27,0.00,CLR,,0.00,WeatherDisplay:10.37,2013-01-23 22:35:00,
2013-01-23 17:40:00,36.1,6.9,30.15,NW,315,0.0,0.0,29,0.00,CLR,,0.00,WeatherDisplay:10.37,2013-01-23 22:40:00,
2013-01-23 17:45:00,35.8,7.3,30.15,NW,315,0.0,0.0,30,0.00,CLR,,0.00,WeatherDisplay:10.37,2013-01-23 22:45:00,
2013-01-23 17:50:00,35.4,7.0,30.15,NW,315,0.0,0.0,30,0.00,CLR,,0.00,WeatherDisplay:10.37,2013-01-23 22:50:00,
2013-01-23 17:55:00,35.1,7.4,30.15,NW,315,0.0,0.0,31,0.00,CLR,,0.00,WeatherDisplay:10.37,2013-01-23 22:55:00,
2013-01-23 18:00:00,34.5,6.9,30.15,NW,315,0.0,0.0,31,0.00,CLR,,0.00,WeatherDisplay:10.37,2013-01-23 23:00:00,
2013-01-23 18:05:00,34.3,6.8,30.15,NW,315,0.0,0.0,31,0.00,CLR,,0.00,WeatherDisplay:10.37,2013-01-23 23:05:00,
2013-01-23 18:10:00,34.0,6.5,30.15,NW,315,0.0,0.0,31,0.00,CLR,,0.00,WeatherDisplay:10.37,2013-01-23 23:10:00,
2013-01-23 18:15:00,33.6,6.8,30.15,NW,315,0.0,0.0,32,0.00,CLR,,0.00,WeatherDisplay:10.37,2013-01-23 23:15:00,
2013-01-23 18:20:00,33.4,7.4,30.15,NW,315,0.0,0.0,33,0.00,CLR,,0.00,WeatherDisplay:10.37,2013-01-23 23:20:00,
2013-01-23 18:25:00,33.1,7.7,30.15,NW,315,0.0,0.0,34,0.00,CLR,,0.00,WeatherDisplay:10.37,2013-01-23 23:25:00,
2013-01-23 18:30:00,32.7,7.4,30.15,NW,315,0.0,0.0,34,0.00,CLR,,0.00,WeatherDisplay:10.37,2013-01-23 23:30:00,
2013-01-23 18:35:00,32.5,6.6,30.15,NW,315,0.0,0.0,33,0.00,CLR,,0.00,WeatherDisplay:10.37,2013-01-23 23:35:00,
2013-01-23 18:40:00,32.4,7.1,30.15,NW,315,0.0,0.0,34,0.00,CLR,,0.00,WeatherDisplay:10.37,2013-01-23 23:40:00,
2013-01-23 18:45:00,32.2,6.9,30.12,NW,315,0.0,0.0,34,0.00,CLR,,0.00,WeatherDisplay:10.37,2013-01-23 23:45:00,
2013-01-23 18:50:00,31.8,6.6,30.12,NW,315,0.0,0.0,34,0.00,CLR,,0.00,WeatherDisplay:10.37,2013-01-23 23:50:00,
2013-01-23 18:55:00,31.5,7.5,30.12,NW,315,0.0,0.0,36,0.00,CLR,,0.00,WeatherDisplay:10.37,2013-01-23 23:55:00,
2013-01-23 19:00:00,31.1,7.2,30.12,NW,315,0.0,0.0,36,0.00,CLR,,0.00,WeatherDisplay:10.37,2013-01-24 00:00:00,
2013-01-23 19:05:00,31.1,7.8,30.12,NW,315,0.0,0.0,37,0.00,CLR,,0.00,WeatherDisplay:10.37,2013-01-24 00:05:00,
2013-01-23 19:10:00,30.7,7.5,30.12,NW,315,0.0,0.0,37,0.00,CLR,,0.00,WeatherDisplay:10.37,2013-01-24 00:10:00,
2013-01-23 19:15:00,30.7,8.1,30.12,NW,315,0.0,0.0,38,0.00,CLR,,0.00,WeatherDisplay:10.37,2013-01-24 00:15:00,
2013-01-23 19:20:00,30.6,7.3,30.12,NW,315,0.0,0.0,37,0.00,CLR,,0.00,WeatherDisplay:10.37,2013-01-24 00:20:00,
2013-01-23 19:25:00,30.2,7.6,30.12,NW,315,0.0,0.0,38,0.00,CLR,,0.00,WeatherDisplay:10.37,2013-01-24 00:25:00,
2013-01-23 19:30:00,30.2,7.0,30.12,NW,315,0.0,0.0,37,0.00,CLR,,0.00,WeatherDisplay:10.37,2013-01-24 00:30:00,
2013-01-23 19:35:00,29.8,7.3,30.12,NW,315,0.0,0.0,38,0.00,CLR,,0.00,WeatherDisplay:10.37,2013-01-24 00:35:00,
2013-01-23 19:40:00,29.7,7.7,30.12,NW,315,0.0,0.0,39,0.00,CLR,,0.00,WeatherDisplay:10.37,2013-01-24 00:40:00,
2013-01-23 19:45:00,29.5,7.5,30.12,NW,315,0.0,0.0,39,0.00,CLR,,0.00,WeatherDisplay:10.37,2013-01-24 00:45:00,
2013-01-23 19:50:00,29.5,8.6,30.12,NW,315,0.0,0.0,41,0.00,CLR,,0.00,WeatherDisplay:10.37,2013-01-24 00:50:00,
2013-01-23 19:55:00,29.3,8.5,30.12,NW,315,0.0,0.0,41,0.00,CLR,,0.00,WeatherDisplay:10.37,2013-01-24 00:55:00,
2013-01-23 20:00:00,29.1,8.3,30.12,NW,315,0.0,0.0,41,0.00,CLR,,0.00,WeatherDisplay:10.37,2013-01-24 01:00:00,
2013-01-23 20:05:00,28.9,7.6,30.12,NW,315,0.0,0.0,40,0.00,CLR,,0.00,WeatherDisplay:10.37,2013-01-24 01:05:00,
2013-01-23 20:10:00,28.8,8.0,30.12,NW,315,0.0,0.0,41,0.00,CLR,,0.00,WeatherDisplay:10.37,2013-01-24 01:10:00,
2013-01-23 20:15:00,28.6,7.8,30.12,NW,315,0.0,0.0,41,0.00,CLR,,0.00,WeatherDisplay:10.37,2013-01-24 01:15:00,
2013-01-23 20:20:00,28.6,7.8,30.12,NW,315,0.0,0.0,41,0.00,CLR,,0.00,WeatherDisplay:10.37,2013-01-24 01:20:00,
2013-01-23 20:25:00,28.4,8.2,30.12,NW,315,0.0,0.0,42,0.00,CLR,,0.00,WeatherDisplay:10.37,2013-01-24 01:25:00,
2013-01-23 20:30:00,28.4,8.7,30.12,NW,315,0.0,0.0,43,0.00,CLR,,0.00,WeatherDisplay:10.37,2013-01-24 01:30:00,
2013-01-23 20:35:00,28.0,8.9,30.12,NW,315,0.0,0.0,44,0.00,CLR,,0.00,WeatherDisplay:10.37,2013-01-24 01:35:00,
2013-01-23 20:40:00,27.9,8.7,30.12,NW,315,0.0,0.0,44,0.00,CLR,,0.00,WeatherDisplay:10.37,2013-01-24 01:40:00,
2013-01-23 20:45:00,27.9,8.7,30.09,NW,315,0.0,0.0,44,0.00,CLR,,0.00,WeatherDisplay:10.37,2013-01-24 01:45:00,
2013-01-23 20:50:00,27.9,8.7,30.09,NW,315,0.0,0.0,44,0.00,CLR,,0.00,WeatherDisplay:10.37,2013-01-24 01:50:00,
2013-01-23 20:55:00,27.9,8.7,30.09,NW,315,0.0,0.0,44,0.00,CLR,,0.00,WeatherDisplay:10.37,2013-01-24 01:55:00,
2013-01-23 21:00:00,27.7,8.6,30.09,NW,315,0.0,0.0,44,0.00,CLR,,0.00,WeatherDisplay:10.37,2013-01-24 02:00:00,
2013-01-23 21:05:00,27.5,8.4,30.09,NW,315,0.0,0.0,44,0.00,CLR,,0.00,WeatherDisplay:10.37,2013-01-24 02:05:00,
2013-01-23 21:10:00,27.3,8.2,30.09,NW,315,0.0,0.0,44,0.00,CLR,,0.00,WeatherDisplay:10.37,2013-01-24 02:10:00,
2013-01-23 21:15:00,27.1,9.1,30.09,NW,315,0.0,0.0,46,0.00,CLR,,0.00,WeatherDisplay:10.37,2013-01-24 02:15:00,
2013-01-23 21:20:00,27.0,9.9,30.09,NW,315,0.0,0.0,48,0.00,CLR,,0.00,WeatherDisplay:10.37,2013-01-24 02:20:00,
2013-01-23 21:25:00,27.0,10.3,30.09,NW,315,0.0,0.0,49,0.00,CLR,,0.00,WeatherDisplay:10.37,2013-01-24 02:25:00,
2013-01-23 21:30:00,27.0,10.3,30.09,NW,315,0.0,0.0,49,0.00,CLR,,0.00,WeatherDisplay:10.37,2013-01-24 02:30:00,
2013-01-23 21:35:00,26.8,10.1,30.09,NW,315,0.0,0.0,49,0.00,CLR,,0.00,WeatherDisplay:10.37,2013-01-24 02:35:00,
2013-01-23 21:39:00,26.6,10.4,30.09,NW,315,0.0,0.0,50,0.00,CLR,,0.00,WeatherDisplay:10.37,2013-01-24 02:39:00,
2013-01-23 21:44:00,26.4,10.3,30.09,NW,315,0.0,0.0,50,0.00,CLR,,0.00,WeatherDisplay:10.37,2013-01-24 02:44:00,
2013-01-23 21:49:00,26.6,10.4,30.09,NW,315,0.0,0.0,50,0.00,CLR,,0.00,WeatherDisplay:10.37,2013-01-24 02:49:00,
2013-01-23 21:54:00,26.4,10.3,30.09,NW,315,0.0,0.0,50,0.00,CLR,,0.00,WeatherDisplay:10.37,2013-01-24 02:54:00,
2013-01-23 21:59:00,26.4,10.7,30.06,NW,315,0.0,0.0,51,0.00,CLR,,0.00,WeatherDisplay:10.37,2013-01-24 02:59:00,
2013-01-23 22:04:00,26.4,10.7,30.06,NW,315,0.0,0.0,51,0.00,CLR,,0.00,WeatherDisplay:10.37,2013-01-24 03:04:00,
2013-01-23 22:09:00,26.4,11.2,30.06,NW,315,0.0,0.0,52,0.00,CLR,,0.00,WeatherDisplay:10.37,2013-01-24 03:09:00,
2013-01-23 22:14:00,26.2,11.0,30.09,NW,315,0.0,0.0,52,0.00,CLR,,0.00,WeatherDisplay:10.37,2013-01-24 03:14:00,
2013-01-23 22:19:00,26.1,10.8,30.09,NW,315,0.0,0.0,52,0.00,CLR,,0.00,WeatherDisplay:10.37,2013-01-24 03:19:00,
2013-01-23 22:24:00,26.1,10.8,30.09,NW,315,0.0,0.0,52,0.00,CLR,,0.00,WeatherDisplay:10.37,2013-01-24 03:24:00,
2013-01-23 22:29:00,26.1,11.2,30.06,NW,315,0.0,0.0,53,0.00,CLR,,0.00,WeatherDisplay:10.37,2013-01-24 03:29:00,
2013-01-23 22:34:00,26.1,11.2,30.06,NW,315,0.0,0.0,53,0.00,CLR,,0.00,WeatherDisplay:10.37,2013-01-24 03:34:00,
2013-01-23 22:39:00,25.9,11.5,30.06,NW,315,0.0,0.0,54,0.00,CLR,,0.00,WeatherDisplay:10.37,2013-01-24 03:39:00,
2013-01-23 22:44:00,25.9,11.5,30.06,NW,315,0.0,0.0,54,0.00,CLR,,0.00,WeatherDisplay:10.37,2013-01-24 03:44:00,
2013-01-23 22:49:00,25.7,11.7,30.06,NW,315,0.0,0.0,55,0.00,CLR,,0.00,WeatherDisplay:10.37,2013-01-24 03:49:00,
2013-01-23 22:54:00,25.7,11.7,30.06,NW,315,0.0,0.0,55,0.00,CLR,,0.00,WeatherDisplay:10.37,2013-01-24 03:54:00,
2013-01-23 22:59:00,25.9,12.3,30.06,NW,315,0.0,0.0,56,0.00,CLR,,0.00,WeatherDisplay:10.37,2013-01-24 03:59:00,
2013-01-23 23:04:00,25.9,12.3,30.06,NW,315,0.0,0.0,56,0.00,CLR,,0.00,WeatherDisplay:10.37,2013-01-24 04:04:00,
2013-01-23 23:09:00,25.9,12.3,30.06,NW,315,0.0,0.0,56,0.00,CLR,,0.00,WeatherDisplay:10.37,2013-01-24 04:09:00,
2013-01-23 23:14:00,25.7,12.2,30.03,NW,315,0.0,0.0,56,0.00,CLR,,0.00,WeatherDisplay:10.37,2013-01-24 04:14:00,
2013-01-23 23:19:00,25.5,12.0,30.03,NW,315,0.0,0.0,56,0.00,CLR,,0.00,WeatherDisplay:10.37,2013-01-24 04:19:00,
2013-01-23 23:24:00,25.3,11.8,30.03,NW,315,0.0,0.0,56,0.00,CLR,,0.00,WeatherDisplay:10.37,2013-01-24 04:24:00,
2013-01-23 23:29:00,25.3,11.4,30.03,NW,315,0.0,0.0,55,0.00,CLR,,0.00,WeatherDisplay:10.37,2013-01-24 04:29:00,
2013-01-23 23:34:00,25.3,11.8,30.03,NW,315,0.0,0.0,56,0.00,CLR,,0.00,WeatherDisplay:10.37,2013-01-24 04:34:00,
2013-01-23 23:39:00,25.2,11.6,30.03,NW,315,0.0,0.0,56,0.00,CLR,,0.00,WeatherDisplay:10.37,2013-01-24 04:39:00,
2013-01-23 23:44:00,25.2,11.6,30.03,NW,315,0.0,0.0,56,0.00,CLR,,0.00,WeatherDisplay:10.37,2013-01-24 04:44:00,
2013-01-23 23:49:00,25.0,11.9,30.03,NW,315,0.0,0.0,57,0.00,CLR,,0.00,WeatherDisplay:10.37,2013-01-24 04:49:00,
2013-01-23 23:54:00,24.8,12.1,30.03,NW,315,0.0,0.0,58,0.00,CLR,,0.00,WeatherDisplay:10.37,2013-01-24 04:54:00,
2013-01-23 23:59:00,25.2,12.4,30.00,NW,315,0.0,0.0,58,0.00,CLR,,0.00,WeatherDisplay:10.37,2013-01-24 04:59:00,